Troy, AL

6:04 PM CST on February 23, 2017 (GMT -0600)
Troy Municipal

Weather History for KTOI - August, 2013

Change the Weather History Date:

Wednesday, August 14, 2013

  Actual Average Record
Temperature  
Mean Temperature 81 °F 80 °F  
Max Temperature 88 °F 91 °F 104 °F (2007)
Min Temperature 74 °F 70 °F 57 °F (2004)
Cooling Degree Days 16 16  
Month to date cooling degree days 241 224  
Year to date cooling degree days 1426 1384  
Since 1 June cooling degree days 1134 1097  
Growing Degree Days 30 (Base 50)    
Moisture  
Dew Point 72 °F    
Average Humidity 77    
Maximum Humidity 93    
Minimum Humidity 61    
Precipitation  
Precipitation 0.13 in 0.16 in 1.44 in (2010)
Month to date precipitation 1.49 2.41  
Year to date precipitation 43.97 35.74  
Sea Level Pressure  
Sea Level Pressure 29.95 in    
Wind  
Wind Speed 4 mph (NNE)    
Max Wind Speed 14 mph    
Max Gust Speed 18 mph    
Visibility 8 miles    
Events Rain    
T = Trace of Precipitation, MM = Missing Value Source: NWS Daily Summary

Daily Weather History Graph

Daily Weather History Graph

Search for Another Location

Airport or City:

Trip Planner

Search our weather history database for the weather conditions in past years. The results will help you decide how hot, cold, wet, or windy it might be!

Date:

Astronomy

Aug. 14, 2013 Rise Set
Actual Time 6:08 AM CDT 7:28 PM CDT
Civil Twilight 5:42 AM CDT 7:54 PM CDT
Nautical Twilight 5:11 AM CDT 8:24 PM CDT
Astronomical Twilight 4:39 AM CDT 8:56 PM CDT
Moon 1:35 PM CDT (8/14) No Moon Set
Length of Visible Light 14h 11m
Length of Day
13h 20m
First Quarter, 53% of the Moon is Illuminated
Aug 14
First Quarter
Aug 20
Full
Aug 28
Last Quarter
Sep 5
New
Sep 12
First Quarter

Hourly Weather History & Observations

Time (CDT) Temp. Heat Index Dew Point Humidity Pressure Visibility Wind Dir Wind Speed Gust Speed Precip Events Conditions
12:13 AM 75.2 °F - 71.6 °F 89% 29.96 in 9.0 mi SW 3.5 mph - N/A   Scattered Clouds
12:22 AM 75.2 °F - 71.6 °F 89% 29.96 in 10.0 mi SSW 3.5 mph - N/A   Mostly Cloudy
12:53 AM 75.9 °F - 72.0 °F 87% 29.94 in 10.0 mi SW 4.6 mph - N/A   Overcast
1:40 AM 75.2 °F - 71.6 °F 89% 29.97 in 9.0 mi WSW 4.6 mph - N/A   Scattered Clouds
1:53 AM 75.0 °F - 72.0 °F 90% 29.94 in 8.0 mi Calm Calm - N/A   Scattered Clouds
2:12 AM 75.2 °F - 71.6 °F 89% 29.96 in 8.0 mi Calm Calm - N/A   Mostly Cloudy
2:20 AM 75.2 °F - 71.6 °F 89% 29.96 in 8.0 mi Calm Calm - N/A   Overcast
2:31 AM 75.2 °F - 71.6 °F 89% 29.96 in 8.0 mi Calm Calm - N/A   Overcast
2:53 AM 75.0 °F - 72.0 °F 90% 29.94 in 8.0 mi Calm Calm - N/A   Overcast
3:16 AM 75.2 °F - 71.6 °F 89% 29.95 in 8.0 mi Calm Calm - N/A   Overcast
3:44 AM 75.2 °F - 71.6 °F 89% 29.95 in 6.0 mi WNW 3.5 mph - N/A   Overcast
3:53 AM 75.0 °F - 72.0 °F 90% 29.93 in 7.0 mi WNW 3.5 mph - N/A   Overcast
4:16 AM 75.2 °F - 71.6 °F 89% 29.95 in 8.0 mi Calm Calm - N/A   Overcast
4:29 AM 75.2 °F - 71.6 °F 89% 29.96 in 8.0 mi Calm Calm - N/A   Overcast
4:49 AM 75.2 °F - 71.6 °F 89% 29.96 in 8.0 mi Calm Calm - N/A   Overcast
4:53 AM 75.0 °F - 71.1 °F 87% 29.94 in 8.0 mi West 3.5 mph - N/A   Overcast
5:27 AM 75.2 °F - 71.6 °F 89% 29.96 in 9.0 mi Calm Calm - N/A   Overcast
5:53 AM 75.0 °F - 71.1 °F 87% 29.95 in 9.0 mi Calm Calm - N/A   Mostly Cloudy
6:13 AM 75.2 °F - 71.6 °F 89% 29.97 in 8.0 mi Calm Calm - 0.00 in Rain Light Rain
6:53 AM 75.0 °F - 71.1 °F 87% 29.96 in 7.0 mi Calm Calm - 0.00 in   Scattered Clouds
7:02 AM 75.2 °F - 71.6 °F 89% 29.97 in 7.0 mi Calm Calm - N/A   Mostly Cloudy
7:53 AM 75.9 °F - 72.0 °F 87% 29.95 in 6.0 mi Calm Calm - N/A   Overcast
8:09 AM 78.8 °F - 71.6 °F 78% 29.96 in 8.0 mi Calm Calm - N/A   Overcast
8:53 AM 77.0 °F - 71.1 °F 82% 29.95 in 9.0 mi Calm Calm - N/A   Overcast
9:16 AM 78.8 °F - 71.6 °F 78% 29.97 in 10.0 mi Calm Calm - N/A   Overcast
9:53 AM 79.0 °F - 71.1 °F 77% 29.96 in 10.0 mi Calm Calm - N/A   Overcast
10:34 AM 80.6 °F 84.6 °F 71.6 °F 74% 29.98 in 10.0 mi SSW 3.5 mph - N/A   Overcast
10:53 AM 81.0 °F 84.9 °F 71.1 °F 72% 29.96 in 10.0 mi Calm Calm - N/A   Overcast
11:53 AM 82.0 °F 86.7 °F 72.0 °F 71% 29.95 in 10.0 mi Calm Calm - N/A   Scattered Clouds
12:22 PM 82.4 °F 88.2 °F 73.4 °F 74% 29.96 in 10.0 mi South 3.5 mph - N/A   Mostly Cloudy
12:53 PM 82.9 °F 88.0 °F 72.0 °F 69% 29.93 in 10.0 mi SW 5.8 mph - N/A   Mostly Cloudy
1:53 PM 86.0 °F 93.0 °F 73.0 °F 65% 29.91 in 10.0 mi SW 8.1 mph - N/A   Mostly Cloudy
2:53 PM 86.0 °F 92.2 °F 72.0 °F 63% 29.89 in 10.0 mi WSW 9.2 mph - N/A   Scattered Clouds
3:37 PM 82.4 °F 88.2 °F 73.4 °F 74% 29.91 in 8.0 mi North 10.4 mph - N/A   Overcast
3:53 PM 79.0 °F - 73.9 °F 84% 29.90 in 7.0 mi NNW 5.8 mph - 0.00 in Rain Light Rain
4:27 PM 78.8 °F - 73.4 °F 83% 29.93 in 4.0 mi North 9.2 mph - 0.01 in Rain Light Rain
4:39 PM 78.8 °F - 75.2 °F 89% 29.93 in 2.0 mi North 8.1 mph - 0.04 in Rain Rain
4:49 PM 78.8 °F - 75.2 °F 89% 29.93 in 3.0 mi NNE 9.2 mph - 0.05 in Rain Light Rain
4:53 PM 78.1 °F - 73.9 °F 87% 29.92 in 4.0 mi NNE 10.4 mph 18.4 mph 0.05 in Rain Light Rain
5:06 PM 77.0 °F - 73.4 °F 89% 29.93 in 6.0 mi North 10.4 mph - 0.00 in   Overcast
5:40 PM 75.2 °F - 71.6 °F 89% 29.93 in 10.0 mi ENE 5.8 mph - 0.00 in   Overcast
5:53 PM 75.9 °F - 72.0 °F 87% 29.92 in 10.0 mi ENE 6.9 mph - 0.00 in   Overcast
6:53 PM 75.9 °F - 71.1 °F 85% 29.92 in 10.0 mi NE 4.6 mph - 0.00 in   Mostly Cloudy
7:00 PM 75.2 °F - 71.6 °F 89% 29.93 in 10.0 mi ENE 4.6 mph - N/A   Overcast
7:28 PM 75.2 °F - 71.6 °F 89% 29.94 in 10.0 mi Calm Calm - N/A   Overcast
7:53 PM 75.0 °F - 71.1 °F 87% 29.94 in 10.0 mi NE 3.5 mph - N/A   Overcast
8:32 PM 75.2 °F - 71.6 °F 89% 29.97 in 5.0 mi NNE 4.6 mph - 0.02 in Rain Rain
8:53 PM 73.9 °F - 71.1 °F 91% 29.96 in 5.0 mi ENE 4.6 mph - 0.08 in Rain Rain
9:42 PM 73.4 °F - 71.6 °F 94% 29.98 in 10.0 mi NE 4.6 mph - 0.00 in   Overcast
9:53 PM 73.9 °F - 71.1 °F 91% 29.96 in 10.0 mi NE 4.6 mph - 0.00 in   Overcast
10:30 PM 73.4 °F - 71.6 °F 94% 29.98 in 10.0 mi NE 4.6 mph - N/A   Overcast
10:46 PM 73.4 °F - 71.6 °F 94% 29.98 in 10.0 mi ENE 3.5 mph - N/A   Overcast
10:53 PM 73.9 °F - 71.1 °F 91% 29.97 in 7.0 mi ENE 5.8 mph - N/A   Overcast
11:14 PM 73.4 °F - 71.6 °F 94% 29.98 in 2.0 mi NE 3.5 mph - N/A   Overcast
11:16 PM 73.4 °F - 71.6 °F 94% 29.98 in 1.8 mi NE 3.5 mph - N/A   Overcast
11:32 PM 73.4 °F - 71.6 °F 94% 29.98 in 2.5 mi East 3.5 mph - N/A   Overcast
11:42 PM 73.4 °F - 71.6 °F 94% 29.98 in 4.0 mi East 3.5 mph - N/A   Overcast
11:53 PM 73.9 °F - 71.1 °F 91% 29.96 in 6.0 mi East 4.6 mph - N/A   Overcast